导读 | 星芒AI

OOV-CUBE 是一颗小型立方体卫星,主要用于教育和科研目的。它由学生团队设计和建造,旨在通过实际太空任务提升工程实践能力。该卫星搭载了多种有效载荷,用于测试通信、遥测和地球观测技术。OOV-CUBE 采用标准化的 CubeSat 架构,便于发射和部署。其任务目标包括验证关键技术、收集空间数据以及促进航天教育发展。

基本信息
目录编号:
60240
目录名称:
OOV-CUBE
国际标识:
2024-128F
轨道中心:
EARTH
卫星名称:
OOV-CUBE 技术验证卫星
卫星全名:
卫星状态:
在轨 (已飞行524 天)
发射日期:
2024-07-09 UTC
国别 :
德国 (DE)
星等 :
--
轨道信息
数据来源 国际轨道数据
星历时间: 2025-12-15T03:28:02+0800
22小时前
查看轨道信息
半长轴: 6940.029km
偏心率: 0.0058438
轨道倾角: 61.994°
近地点辐角 94.675°
升交点赤经 147.973°
平近点角 266.102°
近地点: 521.337km
远地点: 602.451km
周期: 95.896分钟
每日圈数: 15.016229
详细信息
使用方式:
暂无
2D轨道图
3D轨道图
轨道高度分析图
轨道倾角分析图
轨道综合分析图
查看轨道综合分析图